Observations

Aujourd'hui

  • Température

    Max: 6.0° à 00:03:39

    Moy: 4.5°

    Min: 3.2° à 02:32:27

 

  • Humidité

    Max: 72% à 02:32:03

    Min: 63% à 00:03:39

 

  • Précipitation accumulée

    Aujourd'hui: 0 mm

    Ce mois-ci: 0 mm

    Cette année: 250 mm



HeureTemperaturePoint de roséeHumiditéDir. VentVitesseRafalesPressionPrecip.Precip. Accum.
02:29 3.3°C -1.3°C 72% 0 km/h 0 km/h 1026 hPa 0 mm/hr 0 mm
02:24 3.4°C -1.3°C 71% 0 km/h 0 km/h 1026 hPa 0 mm/hr 0 mm
02:19 3.4°C -1.3°C 71% 0 km/h 0 km/h 1026 hPa 0 mm/hr 0 mm
02:14 3.5°C -1.4°C 70% 0 km/h 0 km/h 1026 hPa 0 mm/hr 0 mm
02:09 3.5°C -1.4°C 70% 0 km/h 0 km/h 1026 hPa 0 mm/hr 0 mm
02:04 3.6°C -1.5°C 69% 0 km/h 0 km/h 1026 hPa 0 mm/hr 0 mm
01:59 3.7°C -1.4°C 69% 0 km/h 0 km/h 1026 hPa 0 mm/hr 0 mm
01:54 3.8°C -1.3°C 69% 0 km/h 0 km/h 1026 hPa 0 mm/hr 0 mm
01:49 3.9°C -1.2°C 69% 0 km/h 0 km/h 1026 hPa 0 mm/hr 0 mm
01:44 4°C -1.3°C 68% 0 km/h 0 km/h 1026 hPa 0 mm/hr 0 mm
01:39 4.1°C -1.2°C 68% 0 km/h 0 km/h 1026 hPa 0 mm/hr 0 mm
01:34 4.1°C -1.2°C 68% 0 km/h 0 km/h 1026 hPa 0 mm/hr 0 mm
01:29 4.2°C -1.1°C 68% 0 km/h 0 km/h 1026 hPa 0 mm/hr 0 mm
01:24 4.3°C -1.1°C 68% 0 km/h 0 km/h 1026 hPa 0 mm/hr 0 mm
01:19 4.4°C -1°C 68% 0 km/h 0 km/h 1026 hPa 0 mm/hr 0 mm
01:14 4.6°C -0.7°C 68% 0 km/h 0 km/h 1026 hPa 0 mm/hr 0 mm
01:09 4.7°C -0.8°C 67% 0 km/h 0 km/h 1026 hPa 0 mm/hr 0 mm
01:04 4.7°C -0.8°C 67% 0 km/h 0 km/h 1026 hPa 0 mm/hr 0 mm
00:59 4.8°C -0.8°C 67% 0 km/h 0 km/h 1026 hPa 0 mm/hr 0 mm
00:54 4.9°C -0.7°C 67% 0 km/h 0 km/h 1026 hPa 0 mm/hr 0 mm
00:49 5°C -0.6°C 67% 0 km/h 0 km/h 1026 hPa 0 mm/hr 0 mm
00:44 5.1°C -0.7°C 66% 0 km/h 0 km/h 1026 hPa 0 mm/hr 0 mm
00:39 5.2°C -0.6°C 66% 0 km/h 0 km/h 1026 hPa 0 mm/hr 0 mm
00:34 5.3°C -0.5°C 66% 0 km/h 0 km/h 1026 hPa 0 mm/hr 0 mm
00:29 5.4°C -0.4°C 66% 0 km/h 0 km/h 1026 hPa 0 mm/hr 0 mm
00:24 5.5°C -0.5°C 65% 0 km/h 0 km/h 1026 hPa 0 mm/hr 0 mm
00:19 5.6°C -0.4°C 65% 0 km/h 0 km/h 1026 hPa 0 mm/hr 0 mm
00:14 5.7°C -0.3°C 65% 0 km/h 0 km/h 1026 hPa 0 mm/hr 0 mm
00:09 5.8°C -0.5°C 64% 0 km/h 0 km/h 1026 hPa 0 mm/hr 0 mm
00:04 6°C -0.5°C 63% 0 km/h 0 km/h 1026 hPa 0 mm/hr 0 mm